STARLINK-11633, 63317

Orbit data source: Space-Track

STARLINK-11633, 63317 is a payload satellite owned by SpaceX/Seattle (US) in LEO that was launched on Tue, 18 Mar 2025 UTC via an FALCON 9 launch vehicle from the Air Force Eastern Test Range (AFETR). Payload-class satellites include a variety of spacecraft equipped with specific instruments for various scientific and technological missions. These include communications satellites like Starlink; space stations such as the ISS; scientific satellites like the Hubble; Earth observation satellites from companies like Planet Labs, Umbra, and HawkEye 360; GPS; miniature CubeSats for education and research; and military/defense satellites.

Loading next visibility...
Identifier
63317, 2025-057L
Orbit
LEO
Last TLE update
14 hours ago
Origin
Manufacturer
SpaceX/Seattle
Mission
Operational Commercial Communications
Bus & Motor
STARLINK V2M, Unknown motor
Mass
730 kg wet, ~700 kg dry
Launch date (UTC)
2025-03-18 (2 months ago)
Launch vehicle
FALCON 9
Launch site
Air Force Eastern Test Range (AFETR)
Object type
Payload
Rocket body
Debris
Shape & HBR
Box + 2 Pan, 29 m
Radar Cross Section
36.964 m², Large (>1 m²)

Expand to show TLE details & history

TLE from 14 hours ago
0 STARLINK-11633
1 63317U 25057L   25128.69099974 -.00000018  00000-0  33615-5 0  9993
2 63317  43.0005 302.5726 0001901 249.7516 110.3148 15.70831698  9212
Epoch: 2025-05-08T16:35Z
Definitive object data (Epoch: 2025-05-08T16:35:02.377Z)
Latitude
0.00002°
Longitude
-172.94514°
Altitude
356.735 km
Speed
7.697 km/s
True Right ascension
20h 10m 17s
True Declination
0° 00' 00"
Sunlit
Object was in daylight at TLE epoch
Visualization TLE readout
Latitude
38.04391°
Longitude
-53.07537°
Altitude
359.502 km
Speed
7.699 km/s
Apparent Right ascension
03h 35m 03s
Apparent Declination
0° 20' 27"
Sunlit
Object is in daylight
Visualization observer readout
Local Sidereal Time
14:57:23
Azimuth
345.608° N
Elevation
-48.835°
Doppler factor
1
Orbital elements
Apogee altitude
359.781 km
Perigee altitude
357.22 km
Semi-major axis
6,736.637 km
Eccentricity
0.0001901
Inclination
43.0005°
RAAN
302.5726°
Arg. of periapsis
249.7516°
True anomaly
110.33523°
Mean anomaly
110.3148°
Eccentric anomaly
110.32501°
Mean motion
3.92535 °/min
BSTAR
0.0000033615
Orbital period
91.71 mins
Loading maneuver chart data...
Loading SW <> Apogee altitude chart data...
Loading historical data...
Loading historical data...
Loading historical data...
Loading historical data...
Loading historical data...
Loading historical data...
Loading historical data...

STARLINK-11633 Visibility forecast

Observer location: undefined°, undefined°

Span
Click to sort rows by Start time (UTC) header in descending order
Start Az.
Max El. time (UTC)
Max El. Az.
Max El.
End time (UTC)
End Az.
4 mins2025-05-09 15:44:30.137Z247.569° W2025-05-09 15:45:30.137Z242.163° WSW40.216°2025-05-09 15:48:30.137Z72.692° E
4 mins2025-05-09 17:20:30.137Z292.724° NW2025-05-09 17:22:30.137Z14.42° NNE33.883°2025-05-09 17:24:30.137Z68.002° E
4 mins2025-05-09 18:57:30.137Z300.07° NW2025-05-09 18:58:30.137Z2.101° NNE43.192°2025-05-09 19:01:30.137Z100.113° ESE
|